This is the latest recevied weather packets stored in our database for station/object KC5AV. If no packets are shown the sender has not sent any weather packets the latest 10 day(s).
| Time | Temp. | Humidity | Pressure | Rain* | Wind** | Luminosity | Snow |
|---|---|---|---|---|---|---|---|
| 1777772141 | 16.11° C | 69% | 1020 hPa | 0 mm | - | 0 W/m² | - |
| 1777771839 | 16.11° C | 67% | 1019.9 hPa | 0 mm | - | 0 W/m² | - |
| 1777771536 | 16.67° C | 66% | 1020 hPa | 0 mm | - | 0 W/m² | - |
| 1777771232 | 16.67° C | 65% | 1020 hPa | 0 mm | - | 0 W/m² | - |
| 1777770929 | 17.22° C | 62% | 1019.8 hPa | 0 mm | - | 0 W/m² | - |
| 1777770627 | 17.78° C | 60% | 1020.1 hPa | 0 mm | - | 1 W/m² | - |
| 1777770323 | 17.78° C | 59% | 1019.8 hPa | 0 mm | - | 1 W/m² | - |
| 1777770021 | 18.33° C | 58% | 1019.7 hPa | 0 mm | - | 3 W/m² | - |
| 1777769717 | 18.89° C | 57% | 1019.8 hPa | 0 mm | - | 5 W/m² | - |
| 1777769415 | 18.89° C | 54% | 1019.7 hPa | 0 mm | - | 7 W/m² | - |
| 1777769110 | 19.44° C | 52% | 1019.6 hPa | 0 mm | - | 11 W/m² | - |
| 1777768809 | 20° C | 51% | 1019.4 hPa | 0 mm | - | 14 W/m² | - |
| 1777768505 | 20.56° C | 50% | 1019.5 hPa | 0 mm | - | 17 W/m² | - |
| 1777768202 | 21.11° C | 48% | 1019.4 hPa | 0 mm | - | 20 W/m² | - |
| 1777767900 | 21.67° C | 46% | 1019.5 hPa | 0 mm | - | 23 W/m² | - |
| 1777767595 | 22.22° C | 44% | 1019.5 hPa | 0 mm | - | 26 W/m² | - |
| 1777767292 | 23.33° C | 41% | 1019.6 hPa | 0 mm | - | 29 W/m² | - |
| 1777766989 | 24.44° C | 39% | 1019.4 hPa | 0 mm | - | 32 W/m² | - |
| 1777766687 | 24.44° C | 36% | 1019.6 hPa | 0 mm | - | 45 W/m² | - |
| 1777766384 | 25° C | 34% | 1019.4 hPa | 0 mm | - | 53 W/m² | - |
| 1777766081 | 25.56° C | 34% | 1019.3 hPa | 0 mm | - | 63 W/m² | - |
| 1777765778 | 25° C | 32% | 1019.5 hPa | 0 mm | - | 74 W/m² | - |
| 1777765474 | 25° C | 35% | 1019.4 hPa | 0 mm | - | 89 W/m² | - |
| 1777765172 | 25° C | 35% | 1019.4 hPa | 0 mm | - | 103 W/m² | - |
| 1777764867 | 25° C | 34% | 1019.5 hPa | 0 mm | - | 119 W/m² | - |
* Rain latest hour (hover to see other rain measurements)
** Current wind speed in m/s (hover to see current wind gust speed)